"Pseudo-MPEC" for W023186

Created 2026 Aug 10 23:35:22 UT using Find_Orb

Click here for an explanation of pseudo-MPECs

 
 Astrometry: 
     W023186* C2026 08 08.89839100 50 37.621+14 46 47.96   ~89BK 20.84rVNEOCPO18
     W023186  C2026 08 08.90059000 50 36.865+14 46 36.24   ~89BK 21.06rVNEOCPO18
     W023186  C2026 08 08.90282400 50 36.074+14 46 24.47   ~89BK 20.70rVNEOCPO18
     W023186 0C2026 08 09.51625600 48 27.445+13 56 38.82   ~89FK 21.40wXNEOCPF52
     W023186 0C2026 08 09.52710100 48 23.771+13 55 47.87   ~89FK 21.37wXNEOCPF52
     W023186 0C2026 08 09.53807600 48 20.056+13 54 56.56   ~89FK 21.17wXNEOCPF52
     W023186 0C2026 08 09.54910500 48 16.284+13 54 04.08   ~89FK 21.04wXNEOCPF52
     W023186 KB2026 08 09.99548 00 46 46.91 +13 16 46.8    ~8A1K 19.8 VZNEOCP106
     W023186 KB2026 08 10.00122 00 46 45.28 +13 16 21.7    ~8A1K 19.5 VZNEOCP106
     W023186 KB2026 08 10.00696 00 46 43.70 +13 15 56.6    ~8A1K 20.1 VZNEOCP106
     W023186 KB2026 08 10.01269 00 46 42.03 +13 15 31.8    ~8A1K 19.6 VZNEOCP106
     W023186 1C2026 08 10.94790000 43 40.267+12 07 08.40   ~8ANK 20.9 GXNEOCP033
     W023186 1C2026 08 10.94914000 43 39.976+12 07 03.50   ~8ANK 20.6 GXNEOCP033
     W023186 1C2026 08 10.95037000 43 39.716+12 06 58.30   ~8ANK 20.0 GXNEOCP033
     W023186 1C2026 08 10.95160000 43 39.425+12 06 54.00   ~8ANK 20.8 GXNEOCP033

Station data:
(033) Karl Schwarzschild Observatory, Tautenburg  (N50.980139 E11.711240)
   Germany.  Observer B. Stecklum. 1.34-m f/3 Schmidt + CCD.
(106) Črni Vrh  (N45.945905 E14.071100)  Slovenia.  Observer J. Skvarč. 0.6-m
   f/3.3 Deltagraph + CCD.
(F52) Pan-STARRS 2, Haleakala  (N20.707382 W156.255910)  US/Hawaii.
   Observers J. Herman, T. Lowe, P. Minguez, A. Schultz, I. Smith. Measurers
   K. Chambers, T. de Boer, J. Fairlamb, H. Gao, M. Huber, C.-C. Lin, E.
   Magnier, Y. Ramanjooloo, R. Wainscoat, R. Weryk. 1.8-m Ritchey-Chrétien +
   CCD.
(O18) WFST, Lenghu  (N38.607601 E93.895220)  China.  Observers K. Yan, Z. Q.
   Li, J. Z. Zhu, N. Jiang, Z. Y. Liu. Measurers B. Li, H. B. Zhao, Z. J. Xu,
   G. T. Zhaori. 2.5-m f/2.48 reflector + CCD.

Orbital elements:  W023186
   Perihelion 2026 Jul 5.331347 +/- 0.0187 TT =  7:57:08.3 (JD 2461226.831347)
Epoch 2026 Aug 10.0 TT = JDT 2461262.5   Earth MOID: 0.0054      AutoNEOCP
M  26.294491786 +/- 0.019           (J2000 ecliptic)
n   0.737187677 +/- 0.000429        Peri.  123.200885 +/- 0.0038
a   1.213623576 +/- 0.000471        Node   157.635026 +/- 0.022
e   0.17902281 +/- 0.000351         Incl.    0.652442 +/- 0.0020
P   1.337/488.333d         H 26.23  G  0.15   U  7.5
q 0.996357261 +/- 4.46e-5    Q 1.430889890 +/- 0.000981
From 15 observations 2026 Aug. 8-10; mean residual 0".24
Residuals in arcseconds: 
260808 O18  .05+  .22+    260809 F52  .01-  .08+    260810 106  .70-  .51+    
260808 O18  .10+  .04-    260809 F52  .17-  .41-    260810 033  .02-  .02+    
260808 O18  .19-  .16-    260809 106  .23+  .01+    260810 033  .11-  .01-    
260809 F52  .33+  .30+    260810 106  .27-  .05+    260810 033  .23+  .37-    
260809 F52  .08-  .06-    260810 106  .11+  .13+    260810 033  .13+  .17+    

Ephemerides (geocentric):
Date (UTC) HH   RA             Dec           delta  r     elong  mag " sig PA
---- --------  ------------   ------------  ------ ------ -----  --- --------
2026 08 11 00  00 43 19.814   +12 06 51.61  .03044 1.0305 123.0 20.7 .595 146
2026 08 11 01  00 43 12.032   +12 04 00.03  .03051 1.0306 123.1 20.7 .610 148
2026 08 11 02  00 43 04.281   +12 01 09.18  .03059 1.0306 123.2 20.7 .625 149
2026 08 11 03  00 42 56.559   +11 58 19.06  .03066 1.0307 123.3 20.7 .641 150
2026 08 11 04  00 42 48.867   +11 55 29.66  .03073 1.0308 123.4 20.7 .657 151
2026 08 11 05  00 42 41.204   +11 52 40.97  .03081 1.0309 123.5 20.7 .674 152
2026 08 11 06  00 42 33.570   +11 49 52.98  .03088 1.0309 123.6 20.8 .691 154
2026 08 11 07  00 42 25.966   +11 47 05.71  .03095 1.0310 123.6 20.8 .709 155
2026 08 11 08  00 42 18.390   +11 44 19.13  .03102 1.0311 123.7 20.8 .727 156
2026 08 11 09  00 42 10.842   +11 41 33.25  .03110 1.0312 123.8 20.8 .746 157
2026 08 11 10  00 42 03.323   +11 38 48.06  .03117 1.0312 123.9 20.8 .765 158
2026 08 11 11  00 41 55.832   +11 36 03.55  .03124 1.0313 124.0 20.8 .785 159
2026 08 11 12  00 41 48.368   +11 33 19.73  .03132 1.0314 124.1 20.8 .805 160
2026 08 11 13  00 41 40.932   +11 30 36.58  .03139 1.0315 124.2 20.8 .825 161
2026 08 11 14  00 41 33.524   +11 27 54.11  .03146 1.0315 124.3 20.8 .846 162
2026 08 11 15  00 41 26.142   +11 25 12.30  .03154 1.0316 124.3 20.8 .868 163
2026 08 11 16  00 41 18.788   +11 22 31.15  .03161 1.0317 124.4 20.8 .890 164
2026 08 11 17  00 41 11.460   +11 19 50.67  .03168 1.0318 124.5 20.8 .912 164
2026 08 11 18  00 41 04.158   +11 17 10.83  .03176 1.0318 124.6 20.8 .935 165
2026 08 11 19  00 40 56.883   +11 14 31.65  .03183 1.0319 124.7 20.8 .959 166
2026 08 11 20  00 40 49.633   +11 11 53.12  .03190 1.0320 124.8 20.8 .983 167
2026 08 11 21  00 40 42.410   +11 09 15.22  .03198 1.0321 124.9 20.8 1.01 168
2026 08 11 22  00 40 35.212   +11 06 37.97  .03205 1.0321 125.0 20.8 1.03 168
2026 08 11 23  00 40 28.039   +11 04 01.34  .03212 1.0322 125.0 20.8 1.06 169
2026 08 12 00  00 40 20.892   +11 01 25.35  .03219 1.0323 125.1 20.8 1.08 170
2026 08 12 01  00 40 13.770   +10 58 49.98  .03227 1.0324 125.2 20.8 1.11 171
2026 08 12 02  00 40 06.672   +10 56 15.23  .03234 1.0324 125.3 20.8 1.13 171
2026 08 12 03  00 39 59.599   +10 53 41.10  .03242 1.0325 125.4 20.8 1.16 172
2026 08 12 04  00 39 52.551   +10 51 07.59  .03249 1.0326 125.5 20.8 1.19 173
2026 08 12 05  00 39 45.527   +10 48 34.68  .03256 1.0327 125.6 20.8 1.22 173
2026 08 12 06  00 39 38.527   +10 46 02.37  .03264 1.0327 125.6 20.8 1.24 174
2026 08 12 07  00 39 31.550   +10 43 30.67  .03271 1.0328 125.7 20.8 1.27 174
2026 08 12 08  00 39 24.598   +10 40 59.57  .03278 1.0329 125.8 20.8 1.30 175
2026 08 12 09  00 39 17.668   +10 38 29.06  .03286 1.0330 125.9 20.8 1.33 176
2026 08 12 10  00 39 10.763   +10 35 59.13  .03293 1.0330 126.0 20.8 1.36 176
2026 08 12 11  00 39 03.880   +10 33 29.80  .03300 1.0331 126.1 20.8 1.39 177
2026 08 12 12  00 38 57.020   +10 31 01.04  .03308 1.0332 126.1 20.8 1.42 177
2026 08 12 13  00 38 50.183   +10 28 32.87  .03315 1.0333 126.2 20.8 1.45 178
2026 08 12 14  00 38 43.369   +10 26 05.27  .03322 1.0333 126.3 20.8 1.48 178
2026 08 12 15  00 38 36.577   +10 23 38.24  .03330 1.0334 126.4 20.8 1.51 179
2026 08 12 16  00 38 29.807   +10 21 11.78  .03337 1.0335 126.5 20.8 1.54 179
2026 08 12 17  00 38 23.060   +10 18 45.88  .03345 1.0336 126.6 20.8 1.57 179
2026 08 12 18  00 38 16.334   +10 16 20.55  .03352 1.0336 126.6 20.8 1.60   0
2026 08 12 19  00 38 09.630   +10 13 55.77  .03359 1.0337 126.7 20.8 1.63   0
2026 08 12 20  00 38 02.948   +10 11 31.54  .03367 1.0338 126.8 20.8 1.67   1
2026 08 12 21  00 37 56.287   +10 09 07.87  .03374 1.0339 126.9 20.9 1.70   1
2026 08 12 22  00 37 49.647   +10 06 44.74  .03382 1.0340 127.0 20.9 1.73   1
2026 08 12 23  00 37 43.029   +10 04 22.16  .03389 1.0340 127.1 20.9 1.77   2